Regional Weather Roundup
Issued by NWS

Home | Current Version | Previous Version | Graphics & Text | Print | Product List | Glossary On
Versions: 1 2 3 4 5 6 7 8 9 10 11 12 13 14 15 16 17 18 19 20 21 22 23 24 25 26 27 28 29 30 31 32 33 34 35 36 37 38 39 40 41 42 43 44 45 46 47 48 49 50
000
ASUS43 KFSD 030210
RWRSD

WEATHER ROUNDUP FOR SOUTH DAKOTA
NATIONAL WEATHER SERVICE SIOUX FALLS SD
900 PM CDT WED SEP 02 2015

NOTE: "FAIR" INDICATES FEW OR NO CLOUDS BELOW 12,000 FEET WITH NO
SIGNIFICANT WEATHER AND/OR OBSTRUCTIONS TO VISIBILITY.


SDZ001>005-009-010-012>017-030300-
NORTHWEST AND NORTH CENTRAL SOUTH DAKOTA

CITY           SKY/WX    TMP DP  RH WIND       PRES   REMARKS
BUFFALO          N/A     80  53  39 E12       29.69R
FAITH            N/A     84  52  33 SE14      29.74S
MOBRIDGE       CLEAR     80  74  81 E14       29.71S
$$

SDZ012>016-024>037-041>051-057-063-072>074-030300-
SOUTHWEST AND SOUTH CENTRAL SOUTH DAKOTA

CITY           SKY/WX    TMP DP  RH WIND       PRES   REMARKS
RAPID CTY ARPT CLEAR     80  52  37 NE5       29.78R
PIERRE         CLEAR     83  68  60 E9        29.70R
CUSTER         CLEAR     77  29  17 SW3       29.99R
ELLSWORTH AFB  CLEAR     83  52  33 E5        29.78R
PHILIP         CLEAR     79  56  45 S7        29.72R
PINE RIDGE     CLEAR     76  46  34 SE6       29.82S
WINNER         FAIR      86  56  35 SE12      29.75R
$$

SDZ004>011-016>023-039-040-030300-
NORTHEAST SOUTH DAKOTA

CITY           SKY/WX    TMP DP  RH WIND       PRES   REMARKS
ABERDEEN       CLEAR     78  72  81 SE7       29.76R
WATERTOWN      PTCLDY    79  73  82 SE9       29.83R
BROOKINGS      CLEAR     77  72  83 SE9       29.86R
SISSETON         N/A     77  73  87 SE9       29.80R
$$

SDZ017-020-022-023-036>040-048>070-030300-
SOUTHEAST SOUTH DAKOTA

CITY           SKY/WX    TMP DP  RH WIND       PRES   REMARKS
SIOUX FALLS    PTCLDY    78  71  79 S7        29.83R
HURON          CLEAR     81  73  76 SE12      29.76R
CHAMBERLAIN    CLEAR     77  68  73 SE9       29.74R
MITCHELL       CLEAR     79  74  84 SE8       29.77R
YANKTON        CLEAR     79  72  78 SE7       29.79R
$$

ABBREVIATIONS USED IN REMARKS
   TC - TEMPERATURE IN CELSIUS
  WCI - WIND CHILL INDEX
   HX - HEAT INDEX
  VSB - VISIBILITY




USA.gov is the U.S. government's official web portal to all federal, state and local government web resources and services.